Home   Weather   George Town   Past weeks

Flag for Cayman Islands Past Weather in George Town, Cayman Islands — Yesterday and Last 2 Weeks

Now
91 °F

Passing clouds.


Feels Like: 111 °F
Forecast: 84 / 87 °F
Wind: 13 mph from Northeast

Location: Owen Roberts Airportgrand Cayman

Current Time: Jul 21, 2017 at 1:55:28 pm

Latest Report: Jul 21, 2017 at 12:53 pm


Visibility: N/A

Pressure: 30.01 "Hg

Humidity: 71%

Dew Point: 81 °F

Location of George TownLocation

Past Weather in George Town — Graph

°F

George Town Temperature Yesterday

Maximum temperature yesterday: 91 °F (at 1:00 pm)
Minimum temperature yesterday: 82 °F (at 6:00 am)
Average temperature yesterday: 88 °F

High & Low Weather Summary for the Past Weeks

 TemperatureHumidityPressure
High91 °F (Jul 10, 2:00 pm)100% (Jul 13, 6:00 am)30.04 "Hg (Jul 13, 6:00 am)
Low79 °F (Jul 9, 6:00 am)55% (Jul 13, 12:00 pm)29.92 "Hg (Jul 9, 5:00 pm)
Average86 °F78%29.99 "Hg
* Reported Jul 6 11:00 am — Jul 21 11:50 am, George Town. Weather by CustomWeather, © 2017

Note: Actual official high and low records may vary slightly from our data, if they occured in-between our weather recording intervals... More about our weather records

Advertising

George Town Weather History for the Previous 24 Hours

Scroll right to see more
 ConditionsComfort  
Time TempWeatherWind HumidityBarometerVisibility
11:50 am
Fri, Jul 21
90 °FPassing clouds.9 mph75%30.01 "HgN/A
10:54 am90 °FPassing clouds.10 mph75%30.04 "HgN/A
9:50 am90 °FScattered clouds.12 mph75%30.01 "HgN/A
8:56 am88 °FScattered clouds.12 mph75%30.01 "HgN/A
7:55 am86 °FPassing clouds.12 mph79%30.01 "HgN/A
6:55 am84 °FPassing clouds.10 mph89%29.98 "HgN/A
6:00 am84 °FPassing clouds.10 mph89%29.95 "HgN/A
10:00 pm
Thu, Jul 20
86 °FPassing clouds.12 mph79%30.04 "HgN/A
9:00 pm86 °FPassing clouds.13 mph84%30.04 "HgN/A
8:00 pm86 °FPassing clouds.13 mph79%30.01 "HgN/A
7:00 pm88 °FPassing clouds.13 mph79%30.01 "HgN/A
6:00 pm88 °FPassing clouds.13 mph79%29.98 "HgN/A
5:00 pm90 °FPassing clouds.15 mph71%29.98 "HgN/A
4:00 pm90 °FPassing clouds.15 mph71%29.98 "HgN/A
3:00 pm91 °FPassing clouds.15 mph71%29.98 "HgN/A
2:00 pm91 °FPassing clouds.12 mph67%30.01 "HgN/A
1:00 pm91 °FPassing clouds.10 mph71%30.04 "HgN/A
Weather by CustomWeather, © 2017

See weather overviewHow to use our weather pages